When you browse on this site, cookies collect data to enhance your experience and personalize the content and advertising you see.
Visit our Privacy Policy to learn more. By continuing to use the site, you agree to this use of cookies and data.
  • In Czech Republic
  • List of Countries
  • For 7 days
  • Water Temperature
  • Weather Map
  • Weather Widgets
  • user-avatar
    Login

    Hourly Weather Cottbus

    Today, 19 February, Wednesday

    Time Temperature Precipitation Wind Pressure Humidity
    00:00 +3°C° 0 mm 5 mps 757 mmHg 80%
    01:00 +3°C° 0 mm 4 mps 757 mmHg 81%
    02:00 +3°C° 0 mm 4 mps 756 mmHg 80%
    03:00 +3°C° 0 mm 4 mps 756 mmHg 80%
    04:00 +3°C° 0 mm 4 mps 755 mmHg 79%
    05:00 +2°C° 0 mm 5 mps 754 mmHg 78%
    06:00 +3°C° 0 mm 5 mps 754 mmHg 78%
    07:00 +3°C° 0 mm 4 mps 753 mmHg 77%
    08:00 +3°C° 0.1 mm 5 mps 753 mmHg 78%
    09:00 +3°C° 0.1 mm 6 mps 752 mmHg 80%
    10:00 +4°C° 0.1 mm 7 mps 752 mmHg 81%
    11:00 +3°C° 0.7 mm 6 mps 752 mmHg 84%
    12:00 +3°C° 0.7 mm 6 mps 752 mmHg 86%
    13:00 +3°C° 0.7 mm 6 mps 752 mmHg 89%
    14:00 +3°C° 0.2 mm 6 mps 753 mmHg 82%
    15:00 +4°C° 0.2 mm 6 mps 753 mmHg 75%
    16:00 +5°C° 0.2 mm 5 mps 754 mmHg 68%
    17:00 +3°C° 0.2 mm 6 mps 754 mmHg 75%
    18:00 +2°C° 0.2 mm 6 mps 755 mmHg 83%
    19:00 +1°C° 0.2 mm 6 mps 755 mmHg 90%
    20:00 +1°C° 0.7 mm 6 mps 756 mmHg 89%
    21:00 +1°C° 0.7 mm 6 mps 756 mmHg 87%
    22:00 +2°C° 0.7 mm 6 mps 757 mmHg 85%
    23:00 +1°C° 0.2 mm 6 mps 757 mmHg 83%

    Tomorrow, 20 February, Thursday

    Time Temperature Precipitation Wind Pressure Humidity
    00:00 +1°C° 0.2 mm 6 mps 757 mmHg 82%
    01:00 +1°C° 0.2 mm 5 mps 758 mmHg 80%
    02:00 0°C° 0 mm 5 mps 758 mmHg 83%
    03:00 0°C° 0 mm 4 mps 758 mmHg 85%
    04:00 0°C° 0 mm 3 mps 758 mmHg 87%
    05:00 0°C° 0 mm 3 mps 758 mmHg 88%
    06:00 -1°C° 0 mm 3 mps 758 mmHg 89%
    07:00 -1°C° 0 mm 3 mps 758 mmHg 91%
    08:00 0°C° 0 mm 3 mps 758 mmHg 88%
    09:00 +2°C° 0 mm 3 mps 758 mmHg 85%
    10:00 +3°C° 0 mm 3 mps 759 mmHg 82%
    11:00 +4°C° 0 mm 4 mps 758 mmHg 82%
    12:00 +4°C° 0 mm 4 mps 758 mmHg 82%
    13:00 +5°C° 0 mm 4 mps 758 mmHg 82%
    14:00 +5°C° 0 mm 4 mps 757 mmHg 83%
    15:00 +5°C° 0 mm 4 mps 757 mmHg 83%
    16:00 +5°C° 0 mm 4 mps 756 mmHg 84%
    17:00 +5°C° 0 mm 4 mps 756 mmHg 84%
    18:00 +5°C° 0 mm 4 mps 755 mmHg 84%
    19:00 +5°C° 0 mm 5 mps 755 mmHg 84%
    20:00 +5°C° 0 mm 5 mps 755 mmHg 81%
    21:00 +6°C° 0 mm 5 mps 754 mmHg 79%
    22:00 +6°C° 0 mm 5 mps 753 mmHg 77%
    23:00 +5°C° 0.1 mm 6 mps 753 mmHg 78%

    Day after tomorrow, 21 February, Friday

    Time Temperature Precipitation Wind Pressure Humidity
    00:00 +5°C° 0.1 mm 7 mps 752 mmHg 79%
    01:00 +5°C° 0.1 mm 7 mps 752 mmHg 81%
    02:00 +4°C° 0.4 mm 8 mps 753 mmHg 79%
    03:00 +2°C° 0.4 mm 8 mps 753 mmHg 77%
    04:00 +1°C° 0.4 mm 9 mps 754 mmHg 75%
    05:00 +1°C° 0 mm 8 mps 755 mmHg 75%
    06:00 0°C° 0 mm 7 mps 756 mmHg 75%
    07:00 -1°C° 0 mm 6 mps 758 mmHg 75%
    14:00 +3°C° 0 mm 6 mps 762 mmHg 66%
    15:00 +4°C° 0 mm 6 mps 762 mmHg 65%
    16:00 +5°C° 0 mm 5 mps 762 mmHg 65%
    17:00 +3°C° 0 mm 5 mps 762 mmHg 69%
    18:00 +3°C° 0 mm 4 mps 763 mmHg 73%
    19:00 +2°C° 0 mm 3 mps 763 mmHg 77%
    20:00 +1°C° 0 mm 4 mps 763 mmHg 77%
    21:00 +1°C° 0 mm 4 mps 763 mmHg 76%
    22:00 +1°C° 0 mm 4 mps 763 mmHg 75%
    23:00 +1°C° 0 mm 4 mps 762 mmHg 75%

    22 February, Saturday

    Time Temperature Precipitation Wind Pressure Humidity
    00:00 +3°C° 0 mm 4 mps 762 mmHg 75%
    01:00 +2°C° 0 mm 5 mps 762 mmHg 75%
    02:00 +1°C° 0 mm 5 mps 762 mmHg 76%
    03:00 +1°C° 0 mm 5 mps 761 mmHg 78%
    04:00 +1°C° 0 mm 5 mps 761 mmHg 79%
    05:00 +1°C° 0 mm 5 mps 760 mmHg 79%
    06:00 +1°C° 0 mm 5 mps 760 mmHg 79%
    07:00 +1°C° 0 mm 5 mps 760 mmHg 79%
    08:00 +2°C° 0 mm 6 mps 759 mmHg 73%
    09:00 +3°C° 0 mm 7 mps 759 mmHg 67%
    10:00 +4°C° 0 mm 7 mps 758 mmHg 60%
    11:00 +6°C° 0 mm 8 mps 758 mmHg 56%
    12:00 +7°C° 0 mm 8 mps 758 mmHg 52%
    13:00 +9°C° 0 mm 8 mps 758 mmHg 48%
    14:00 +9°C° 0 mm 8 mps 757 mmHg 50%
    15:00 +8°C° 0 mm 7 mps 757 mmHg 52%
    16:00 +8°C° 0 mm 7 mps 756 mmHg 54%
    17:00 +8°C° 0 mm 7 mps 756 mmHg 56%
    18:00 +8°C° 0 mm 7 mps 756 mmHg 58%
    19:00 +6°C° 0 mm 7 mps 756 mmHg 59%
    20:00 +8°C° 0 mm 7 mps 756 mmHg 61%
    21:00 +7°C° 0 mm 8 mps 756 mmHg 62%
    22:00 +7°C° 0 mm 8 mps 757 mmHg 64%
    23:00 +7°C° 0.3 mm 8 mps 757 mmHg 69%

    23 February, Sunday

    Time Temperature Precipitation Wind Pressure Humidity
    00:00 +8°C° 0.3 mm 7 mps 757 mmHg 74%
    01:00 +8°C° 0.3 mm 7 mps 756 mmHg 80%
    02:00 +6°C° 0.7 mm 7 mps 756 mmHg 82%
    03:00 +7°C° 0.7 mm 6 mps 756 mmHg 84%
    04:00 +7°C° 0.7 mm 6 mps 756 mmHg 85%
    05:00 +7°C° 0.2 mm 5 mps 756 mmHg 85%
    06:00 +6°C° 0.2 mm 5 mps 756 mmHg 84%
    07:00 +6°C° 0.2 mm 5 mps 757 mmHg 83%
    08:00 +6°C° 0.1 mm 5 mps 757 mmHg 80%
    09:00 +7°C° 0.1 mm 6 mps 757 mmHg 78%
    10:00 +6°C° 0.1 mm 7 mps 757 mmHg 76%
    11:00 +5°C° 0.5 mm 6 mps 756 mmHg 79%
    12:00 +6°C° 0.5 mm 5 mps 755 mmHg 83%
    13:00 +5°C° 0.5 mm 5 mps 755 mmHg 87%
    14:00 +5°C° 1.4 mm 4 mps 753 mmHg 90%
    15:00 +5°C° 1.4 mm 4 mps 751 mmHg 92%
    16:00 +5°C° 1.4 mm 3 mps 750 mmHg 95%
    17:00 +7°C° 1.4 mm 6 mps 748 mmHg 91%
    18:00 +9°C° 1.4 mm 8 mps 747 mmHg 87%
    19:00 +9°C° 1.4 mm 11 mps 745 mmHg 83%
    20:00 +8°C° 1.2 mm 10 mps 746 mmHg 81%
    21:00 +7°C° 1.2 mm 10 mps 746 mmHg 78%
    22:00 +7°C° 1.2 mm 10 mps 746 mmHg 75%
    23:00 +5°C° 0.3 mm 10 mps 748 mmHg 79%

    24 February, Monday

    Time Temperature Precipitation Wind Pressure Humidity
    00:00 +3°C° 0.3 mm 10 mps 750 mmHg 84%
    01:00 +2°C° 0.3 mm 10 mps 751 mmHg 89%
    02:00 +1°C° 0.3 mm 9 mps 753 mmHg 84%
    03:00 +1°C° 0.3 mm 9 mps 755 mmHg 79%
    04:00 0°C° 0.3 mm 8 mps 757 mmHg 74%
    05:00 0°C° 0 mm 8 mps 757 mmHg 75%
    06:00 0°C° 0 mm 8 mps 758 mmHg 77%
    07:00 +1°C° 0 mm 8 mps 759 mmHg 78%
    08:00 +1°C° 0 mm 8 mps 760 mmHg 77%
    09:00 +1°C° 0 mm 8 mps 761 mmHg 75%
    10:00 +2°C° 0 mm 8 mps 762 mmHg 74%
    11:00 +2°C° 0 mm 8 mps 762 mmHg 71%
    12:00 +4°C° 0 mm 7 mps 763 mmHg 69%
    13:00 +4°C° 0 mm 7 mps 763 mmHg 67%
    14:00 +4°C° 0 mm 6 mps 763 mmHg 67%
    15:00 +5°C° 0 mm 5 mps 763 mmHg 66%
    16:00 +5°C° 0 mm 4 mps 762 mmHg 66%
    17:00 +4°C° 0 mm 4 mps 762 mmHg 72%
    18:00 +3°C° 0 mm 3 mps 762 mmHg 77%
    19:00 +3°C° 0 mm 2 mps 762 mmHg 83%
    20:00 +3°C° 0 mm 2 mps 761 mmHg 83%
    21:00 +2°C° 0 mm 3 mps 761 mmHg 83%
    22:00 +2°C° 0 mm 3 mps 760 mmHg 83%
    23:00 +2°C° 0 mm 3 mps 759 mmHg 80%
    Show more